Regional Weather Roundup
Issued by NWS

Home | Current Version | Previous Version | Text Only | Print | Product List | Glossary On
Versions: 1 2 3 4 5 6 7 8 9 10 11 12 13 14 15 16 17 18 19 20 21 22 23 24 25 26 27 28 29 30 31 32 33 34 35 36 37 38 39 40 41 42 43 44 45 46 47 48 49 50
000
ASUS43 KDMX 290607
RWRIA

WEATHER ROUNDUP FOR IOWA
NATIONAL WEATHER SERVICE DES MOINES IA
1200 AM CST SAT NOV 29 2014

NOTE: "FAIR" INDICATES FEW OR NO CLOUDS BELOW 12,000 FEET WITH NO
SIGNIFICANT WEATHER AND/OR OBSTRUCTIONS TO VISIBILITY.

* - THESE STATIONS ARE NOT NWS STATIONS...THUS NOT UNDER NWS
QUALITY CONTROL.  THEY ALSO DO NOT REPORT WEATHER SUCH
AS PRECIPITATION OR FOG.

IAZ001>003-012>014-020>022-031>034-043>046-290700-
   NORTHWEST IOWA

CITY           SKY/WX    TMP DP  RH WIND       PRES   REMARKS
CARROLL *      CLEAR     28  27  93 SE5       29.59F WCI  23
CHEROKEE *     CLEAR     24  24  99 CALM      29.58F
DENISON *      CLEAR     37  32  81 SW5       29.56F WCI  34
LE MARS *      CLEAR     28  28 100 CALM      29.56F
ORANGE CITY *  CLEAR     28  25  86 SE5       29.56S WCI  23
SHELDON *      CLEAR     23  23 100 E6        29.55F WCI  16
SIOUX CITY     PTCLDY    28  25  88 S3        29.57F
6HR MIN TEMP:  27; 6HR MAX TEMP:  39;

SPENCER        CLEAR     22  20  92 E7        29.58F FOG     WCI  13
6HR MIN TEMP:  21; 6HR MAX TEMP:  29;

STORM LAKE *   CLEAR     25  23  93 SE8       29.58F FOG     WCI  16
$$

IAZ055>058-069>071-079>083-090>094-290700-
   SOUTHWEST IOWA

CITY           SKY/WX    TMP DP  RH WIND       PRES   REMARKS
ATLANTIC *     CLEAR     37  32  81 S8        29.61S WCI  31
AUDUBON *      CLEAR     37  30  75 S5        29.60F WCI  34
CLARINDA *     CLEAR     30  28  93 S5        29.66S WCI  25
COUNCIL BLFS * CLEAR     45  36  70 S10       29.59S
CRESTON *      CLEAR     39  34  81 S14       29.63F WCI  31
HARLAN  *      CLEAR     36  34  93 S8        29.63S WCI  29
LAMONI         CLEAR     40  33  76 S12       29.66F WCI  33
6HR MIN TEMP:  39; 6HR MAX TEMP:  43;

RED OAK *      CLEAR     36  32  87 CALM      29.63S
SHENANDOAH *   CLEAR     36  30  80 S6        29.64S WCI  31
$$

IAZ047>049-059>061-072>074-084-290700-
   CENTRAL IOWA

CITY           SKY/WX    TMP DP  RH WIND       PRES   REMARKS
AMES           PTCLDY    27  24  89 SE6       29.63F WCI  20
6HR MIN TEMP:  25; 6HR MAX TEMP:  29;

ANKENY *       CLEAR     30  28  93 CALM      29.64F
CHARITON *     PTCLDY    41  34  75 S12       29.65F
DES MOINES     PTCLDY    36  30  79 SE8       29.63F WCI  30
6HR MIN TEMP:  36; 6HR MAX TEMP:  41;

GRINNELL*      PTCLDY    28  27  93 E8        29.66F FOG     WCI  20
KNOXVILLE *    CLEAR     37  32  81 SE7       29.64F WCI  32
MARSHALLTOWN   PTCLDY    28  26  92 SE10      29.65F WCI  19
6HR MIN TEMP:  25; 6HR MAX TEMP:  30;

PELLA *        PTCLDY    32  30  93 E6        29.68F WCI  26
PERRY *          N/A     28  28 100 E6        29.62S WCI  22
$$

IAZ004>006-015-016-023>025-035-036-290700-
   NORTH CENTRAL IOWA

CITY           SKY/WX    TMP DP  RH WIND       PRES   REMARKS
ALGONA *       CLEAR     27  25  93 SE15      29.60F WCI  15
CLARION *      CLEAR     28  28 100 SE18      29.61F WCI  16
ESTHERVILLE    CLEAR     18  16  92 E6        29.60F FOG     WCI  10
6HR MIN TEMP:  15; 6HR MAX TEMP:  22;

FORT DODGE *   PTCLDY    28  25  86 SE7       29.61F WCI  21
MASON CITY     CLEAR     24  22  91 SE10      29.66F FOG     WCI  14
6HR MIN TEMP:  23; 6HR MAX TEMP:  25;

FOREST CITY *  CLEAR     27  27 100 SE9       29.64F FOG     WCI  17
IOWA FALLS *     N/A     25  23  93 E7        29.65F FOG     WCI  17
$$

IAZ007>011-017>019-026>030-037>042-050>054-066-290700-
   NORTHEAST IOWA

CITY           SKY/WX    TMP DP  RH WIND       PRES   REMARKS
CEDAR RAPIDS   CLEAR     27  26  96 SE9       29.70F FOG     WCI  18
6HR MIN TEMP:  26; 6HR MAX TEMP:  29;

CHARLES CITY * MOCLDY    27  25  93 E12       29.67F FOG     WCI  16
CLINTON *      CLEAR     34  28  80 SE10      29.80S WCI  26
DECORAH *      CLEAR     25  23  93 SE8G15    29.70F FOG     WCI  16
DUBUQUE        CLEAR     30  29  96 S8        29.75F FOG     WCI  22
6HR MIN TEMP:  27; 6HR MAX TEMP:  30;

MONTICELLO *   CLEAR     30  30 100 SE12      29.73F WCI  21
OELWEIN *      CLEAR     30  28  93 SE12      29.70F FOG     WCI  21
WATERLOO       PTCLDY    27  26  96 E9        29.68F FOG     WCI  18
6HR MIN TEMP:  24; 6HR MAX TEMP:  29;

$$

IAZ064-065-067-068-078-290700-
   EAST CENTRAL IOWA

CITY           SKY/WX    TMP DP  RH WIND       PRES   REMARKS
DAVENPORT      CLEAR     33  28  81 S15       29.76F WCI  23
6HR MIN TEMP:  31; 6HR MAX TEMP:  34;

IOWA CITY      CLEAR     30  28  92 SE6       29.74F WCI  24
6HR MIN TEMP:  30; 6HR MAX TEMP:  33;

MT. PLEASANT * CLEAR     37  32  83 S10       29.73F WCI  29
MUSCATINE *    CLEAR     28  27  93 CALM      29.75F
QUAD CITIES    CLEAR     34  29  82 SE7       29.76F WCI  28
6HR MIN TEMP:  29; 6HR MAX TEMP:  35;

$$

IAZ062-063-075>077-085>089-095>099-290700-
   SOUTHEAST IOWA

CITY           SKY/WX    TMP DP  RH WIND       PRES   REMARKS
BURLINGTON     PTCLDY    38  32  79 S10       29.75F WCI  31
6HR MIN TEMP:  35; 6HR MAX TEMP:  39;

FAIRFIELD *    CLEAR     37  32  81 S8        29.70F WCI  31
FORT MADISON * CLEAR     39  36  87 S12       29.75F WCI  32
KEOKUK *       CLEAR     45  36  70 S15       29.74F
OSKALOOSA *      N/A     32  30  92 SE8       29.68F WCI  25
CENTERVILLE *  CLEAR     43  36  75 S9        29.69F
OTTUMWA        PTCLDY    37  31  78 S10       29.67F WCI  30
6HR MIN TEMP:  33; 6HR MAX TEMP:  38;

WASHINGTON *   CLEAR     30  30 100 SE6       29.72F WCI  24
$$

ABBREVIATIONS USED IN REMARKS
   TC - TEMPERATURES IN CELSIUS
  WCI - WIND CHILL INDEX
   HX - HEAT INDEX
  VSB - VISIBILITY
$$



USA.gov is the U.S. government's official web portal to all federal, state and local government web resources and services.